Search the data

BODC Cruise Metadata Report for RRS Charles Darwin (74AB) cruise CD24

Introduction

This report collates information from the BODC cruise inventory and oceanographic databases. It presents

Cruise Inventory Information

Long name RRS Charles Darwin (74AB) cruise CD24
Short name CD24
Objectives and Narrative Physical oceanography. GR 35549 NE
Ship RRS Charles Darwin
Departure Port Port Louis, Mauritius
Departure Date 1987-06-15
Arrival Port Mombasa, Kenya
Arrival Date 1987-07-14
Principal Scientist(s) Eric Desmond Barton (University of Wales, Bangor School of Ocean Sciences)
Responsible Organisation University of Wales, Bangor School of Ocean Sciences
Associated Project(s)
IHB Sea Areas Visited Indian Ocean
Marsden Squares Visited 330;3/331;4/366
Work Area Description Aldabra Islands/ W. Indian Ocean
Work Area Bounding Polygon 20S,45E; 5S,45E; 5S,60E; 20S,60E; 20S,45E
Southern Limit 20S
Northern Limit 5S
Western Limit 45E
Eastern Limit 60E

Cruise Inventory Datasets

Physical oceanography  
Bathythermograph Quantity: number of profiles = 100
Description:  
CTD stations Quantity: number of profiles = 200
Description:  
Current meters Quantity: number of recoveries = 5
Description: Moorings holding a total of 21 current meters. 4 deployed on CD22, the 5th on this cruise.  
Current meters Quantity: number of deployments = 1
Description: Mooring with 3 current meters.  
Current profiler (eg ADCP) Description: ADCP  
Surface measurements underway (T,S) Description:  
Transparency (eg transmissometer) Quantity: number of profiles = 10
Description:  
Chemical oceanography  
Nitrate Quantity: number of measurements = 500
Description:  
Silicate Quantity: number of measurements = 500
Description:  

Cruise Inventory Mooring/Buoy Operations

No information on datasets is currently available

Summary of BODC Data Holdings for the Cruise

National Oceanographic Database

Summary

# Series Instrument Description Parameters
83 CTD/STD cast Salinity of the water column
Temperature of the water column
Vertical spatial coordinates
106 CTD/STD cast Salinity of the water column
Temperature of the water column
Transmittance and attenuance of the water column
Vertical spatial coordinates

Note: Parameter terms are taken from the BODC Parameter Discovery Vocabulary XML (SKOS)

Full List

BODC Reference Instrument Description Date/Time Location  
352080 CTD/STD cast 1987-06-19 01:50Z to 1987-06-19 03:53Z 8° 55' S, 53° 34' E Click for more
352092 CTD/STD cast 1987-06-19 13:54Z to 1987-06-19 15:45Z 8° 57' S, 53° 24' E Click for more
352111 CTD/STD cast 1987-06-19 21:25Z to 1987-06-19 23:20Z 8° 58' S, 53° 13' E Click for more
352123 CTD/STD cast 1987-06-20 03:35Z to 1987-06-20 05:45Z 9° 0' S, 53° 4' E Click for more
352135 CTD/STD cast 1987-06-20 10:23Z to 1987-06-20 11:47Z 9° 2' S, 52° 52' E Click for more
352147 CTD/STD cast 1987-06-20 18:35Z to 1987-06-20 20:24Z 9° 6' S, 52° 37' E Click for more
352159 CTD/STD cast 1987-06-21 04:20Z to 1987-06-21 05:45Z 8° 16' S, 52° 52' E Click for more
352160 CTD/STD cast 1987-06-21 09:43Z to 1987-06-21 11:40Z 8° 21' S, 52° 41' E Click for more
352172 CTD/STD cast 1987-06-21 15:51Z to 1987-06-21 17:20Z 8° 25' S, 52° 33' E Click for more
352184 CTD/STD cast 1987-06-21 21:51Z to 1987-06-21 23:09Z 8° 34' S, 52° 14' E Click for more
352196 CTD/STD cast 1987-06-23 14:46Z to 1987-06-23 15:36Z 9° 19' S, 46° 12' E Click for more
352203 CTD/STD cast 1987-06-23 17:38Z to 1987-06-23 18:16Z 9° 24' S, 46° 9' E Click for more
352215 CTD/STD cast 1987-06-23 19:23Z to 1987-06-23 20:00Z 9° 30' S, 46° 10' E Click for more
352227 CTD/STD cast 1987-06-23 21:29Z to 1987-06-23 22:05Z 9° 33' S, 46° 15' E Click for more
352239 CTD/STD cast 1987-06-23 23:06Z to 1987-06-24 00:20Z 9° 31' S, 46° 20' E Click for more
352240 CTD/STD cast 1987-06-24 01:59Z to 1987-06-24 02:34Z 9° 30' S, 46° 25' E Click for more
352252 CTD/STD cast 1987-06-24 03:44Z to 1987-06-24 04:27Z 9° 29' S, 46° 30' E Click for more
352264 CTD/STD cast 1987-06-24 05:53Z to 1987-06-24 06:37Z 9° 27' S, 46° 34' E Click for more
352276 CTD/STD cast 1987-06-24 07:32Z to 1987-06-24 08:14Z 9° 23' S, 46° 35' E Click for more
352288 CTD/STD cast 1987-06-24 09:31Z to 1987-06-24 10:24Z 9° 21' S, 46° 31' E Click for more
352307 CTD/STD cast 1987-06-24 11:12Z to 1987-06-24 12:00Z 9° 19' S, 46° 27' E Click for more
352319 CTD/STD cast 1987-06-24 13:21Z to 1987-06-24 13:46Z 9° 19' S, 46° 22' E Click for more
352320 CTD/STD cast 1987-06-24 14:39Z to 1987-06-24 15:07Z 9° 19' S, 46° 17' E Click for more
352332 CTD/STD cast 1987-06-24 17:09Z to 1987-06-24 17:57Z 9° 16' S, 46° 7' E Click for more
352344 CTD/STD cast 1987-06-24 19:21Z to 1987-06-24 20:02Z 9° 23' S, 46° 4' E Click for more
352356 CTD/STD cast 1987-06-24 22:18Z to 1987-06-24 22:57Z 9° 31' S, 46° 6' E Click for more
352368 CTD/STD cast 1987-06-25 00:13Z to 1987-06-25 00:48Z 9° 35' S, 46° 12' E Click for more
352381 CTD/STD cast 1987-06-25 03:25Z to 1987-06-25 03:51Z 9° 35' S, 46° 20' E Click for more
352393 CTD/STD cast 1987-06-25 05:19Z to 1987-06-25 05:54Z 9° 34' S, 46° 27' E Click for more
352400 CTD/STD cast 1987-06-25 08:57Z to 1987-06-25 09:50Z 9° 31' S, 46° 33' E Click for more
352412 CTD/STD cast 1987-06-25 11:44Z to 1987-06-25 12:24Z 9° 28' S, 46° 37' E Click for more
352424 CTD/STD cast 1987-06-25 13:49Z to 1987-06-25 14:13Z 9° 24' S, 46° 40' E Click for more
352436 CTD/STD cast 1987-06-25 15:32Z to 1987-06-25 16:12Z 9° 19' S, 46° 36' E Click for more
352448 CTD/STD cast 1987-06-25 17:59Z to 1987-06-25 18:30Z 9° 15' S, 46° 30' E Click for more
352461 CTD/STD cast 1987-06-25 19:41Z to 1987-06-25 20:16Z 9° 13' S, 46° 23' E Click for more
352473 CTD/STD cast 1987-06-26 09:09Z to 1987-06-26 09:15Z 9° 21' S, 46° 14' E Click for more
352485 CTD/STD cast 1987-06-26 10:50Z to 1987-06-26 11:30Z 9° 13' S, 46° 5' E Click for more
352497 CTD/STD cast 1987-06-26 13:50Z to 1987-06-26 14:25Z 9° 14' S, 46° 0' E Click for more
352504 CTD/STD cast 1987-06-26 17:20Z to 1987-06-26 18:03Z 9° 20' S, 46° 0' E Click for more
352516 CTD/STD cast 1987-06-26 19:18Z to 1987-06-26 20:50Z 9° 25' S, 46° 0' E Click for more
352528 CTD/STD cast 1987-06-26 21:32Z to 1987-06-26 22:20Z 9° 30' S, 46° 0' E Click for more
352541 CTD/STD cast 1987-06-26 23:49Z to 1987-06-27 00:25Z 9° 36' S, 45° 58' E Click for more
352553 CTD/STD cast 1987-06-27 01:25Z to 1987-06-27 01:49Z 9° 36' S, 45° 53' E Click for more
352565 CTD/STD cast 1987-06-27 03:20Z to 1987-06-27 03:43Z 9° 30' S, 45° 55' E Click for more
352577 CTD/STD cast 1987-06-27 05:00Z to 1987-06-27 05:38Z 9° 23' S, 45° 52' E Click for more
352589 CTD/STD cast 1987-06-27 06:51Z to 1987-06-27 07:34Z 9° 19' S, 45° 51' E Click for more
352590 CTD/STD cast 1987-06-27 08:40Z to 1987-06-27 09:23Z 9° 12' S, 45° 52' E Click for more
352608 CTD/STD cast 1987-06-27 15:20Z to 1987-06-27 15:45Z 9° 30' S, 46° 14' E Click for more
352621 CTD/STD cast 1987-06-29 18:58Z to 1987-06-29 19:30Z 9° 6' S, 46° 40' E Click for more
352633 CTD/STD cast 1987-06-29 20:50Z to 1987-06-29 21:29Z 9° 3' S, 46° 31' E Click for more
352645 CTD/STD cast 1987-06-29 23:20Z to 1987-06-29 23:42Z 9° 3' S, 46° 24' E Click for more
352657 CTD/STD cast 1987-06-30 00:30Z to 1987-06-30 01:00Z 9° 3' S, 46° 18' E Click for more
352669 CTD/STD cast 1987-06-30 02:25Z to 1987-06-30 02:54Z 9° 4' S, 46° 13' E Click for more
352670 CTD/STD cast 1987-06-30 04:12Z to 1987-06-30 04:38Z 9° 4' S, 46° 4' E Click for more
352682 CTD/STD cast 1987-06-30 06:16Z to 1987-06-30 06:49Z 9° 11' S, 46° 7' E Click for more
352694 CTD/STD cast 1987-06-30 08:06Z to 1987-06-30 08:30Z 9° 10' S, 46° 13' E Click for more
352701 CTD/STD cast 1987-06-30 10:18Z to 1987-06-30 10:40Z 9° 10' S, 46° 21' E Click for more
352713 CTD/STD cast 1987-06-30 12:03Z to 1987-06-30 12:24Z 9° 9' S, 46° 30' E Click for more
352725 CTD/STD cast 1987-06-30 15:43Z to 1987-06-30 16:12Z 9° 11' S, 46° 36' E Click for more
352737 CTD/STD cast 1987-06-30 17:31Z to 1987-06-30 18:05Z 9° 18' S, 46° 37' E Click for more
352749 CTD/STD cast 1987-06-30 19:24Z to 1987-06-30 19:54Z 9° 15' S, 46° 33' E Click for more
352750 CTD/STD cast 1987-06-30 20:47Z to 1987-06-30 21:18Z 9° 15' S, 46° 28' E Click for more
352762 CTD/STD cast 1987-06-30 22:39Z to 1987-06-30 23:04Z 9° 14' S, 46° 22' E Click for more
352774 CTD/STD cast 1987-06-30 23:54Z to 1987-07-01 00:18Z 9° 15' S, 46° 16' E Click for more
352786 CTD/STD cast 1987-07-01 01:43Z to 1987-07-01 02:03Z 9° 16' S, 46° 10' E Click for more
352798 CTD/STD cast 1987-07-01 02:57Z to 1987-07-01 03:16Z 9° 18' S, 46° 7' E Click for more
352805 CTD/STD cast 1987-07-01 04:46Z to 1987-07-01 05:11Z 9° 20' S, 46° 12' E Click for more
352817 CTD/STD cast 1987-07-01 05:49Z to 1987-07-01 06:11Z 9° 22' S, 46° 13' E Click for more
352829 CTD/STD cast 1987-07-01 07:28Z to 1987-07-01 07:48Z 9° 19' S, 46° 17' E Click for more
352830 CTD/STD cast 1987-07-01 08:40Z to 1987-07-01 08:57Z 9° 21' S, 46° 18' E Click for more
352842 CTD/STD cast 1987-07-01 10:15Z to 1987-07-01 10:37Z 9° 19' S, 46° 21' E Click for more
352854 CTD/STD cast 1987-07-01 11:33Z to 1987-07-01 11:51Z 9° 21' S, 46° 22' E Click for more
352866 CTD/STD cast 1987-07-01 12:44Z to 1987-07-01 13:00Z 9° 21' S, 46° 22' E Click for more
352878 CTD/STD cast 1987-07-01 14:29Z to 1987-07-01 15:12Z 9° 19' S, 46° 27' E Click for more
352891 CTD/STD cast 1987-07-01 16:28Z to 1987-07-01 16:41Z 9° 22' S, 46° 27' E Click for more
352909 CTD/STD cast 1987-07-01 17:20Z to 1987-07-01 17:32Z 9° 22' S, 46° 30' E Click for more
352910 CTD/STD cast 1987-07-01 18:38Z to 1987-07-01 19:05Z 9° 21' S, 46° 31' E Click for more
352922 CTD/STD cast 1987-07-01 20:05Z to 1987-07-01 20:24Z 9° 24' S, 46° 35' E Click for more
352934 CTD/STD cast 1987-07-01 21:19Z to 1987-07-01 21:36Z 9° 23' S, 46° 40' E Click for more
352946 CTD/STD cast 1987-07-01 22:21Z to 1987-07-01 22:48Z 9° 27' S, 46° 39' E Click for more
352958 CTD/STD cast 1987-07-01 23:32Z to 1987-07-01 23:56Z 9° 27' S, 46° 33' E Click for more
352971 CTD/STD cast 1987-07-02 00:45Z to 1987-07-02 01:07Z 9° 30' S, 46° 29' E Click for more
352983 CTD/STD cast 1987-07-02 02:12Z to 1987-07-02 02:33Z 9° 31' S, 46° 33' E Click for more
352995 CTD/STD cast 1987-07-02 03:29Z to 1987-07-02 03:53Z 9° 33' S, 46° 25' E Click for more
353009 CTD/STD cast 1987-07-02 04:59Z to 1987-07-02 05:29Z 9° 30' S, 46° 24' E Click for more
353010 CTD/STD cast 1987-07-02 06:20Z to 1987-07-02 06:41Z 9° 31' S, 46° 19' E Click for more
353022 CTD/STD cast 1987-07-02 07:25Z to 1987-07-02 07:50Z 9° 36' S, 46° 19' E Click for more
353034 CTD/STD cast 1987-07-02 08:59Z to 1987-07-02 09:19Z 9° 36' S, 46° 12' E Click for more
353046 CTD/STD cast 1987-07-02 10:07Z to 1987-07-02 10:22Z 9° 32' S, 46° 14' E Click for more
353058 CTD/STD cast 1987-07-02 11:09Z to 1987-07-02 11:26Z 9° 29' S, 46° 10' E Click for more
353071 CTD/STD cast 1987-07-02 12:16Z to 1987-07-02 12:36Z 9° 31' S, 46° 5' E Click for more
353083 CTD/STD cast 1987-07-02 14:36Z to 1987-07-02 14:59Z 9° 24' S, 46° 4' E Click for more
353095 CTD/STD cast 1987-07-02 15:41Z to 1987-07-02 15:58Z 9° 24' S, 46° 8' E Click for more
353102 CTD/STD cast 1987-07-06 12:53Z to 1987-07-06 13:20Z 9° 18' S, 46° 9' E Click for more
353114 CTD/STD cast 1987-07-06 13:56Z to 1987-07-06 14:32Z 9° 19' S, 46° 10' E Click for more
353126 CTD/STD cast 1987-07-06 15:01Z to 1987-07-06 15:20Z 9° 21' S, 46° 9' E Click for more
353138 CTD/STD cast 1987-07-06 15:49Z to 1987-07-06 16:20Z 9° 23' S, 46° 9' E Click for more
353151 CTD/STD cast 1987-07-06 16:49Z to 1987-07-06 17:38Z 9° 25' S, 46° 9' E Click for more
353163 CTD/STD cast 1987-07-06 18:26Z to 1987-07-06 18:54Z 9° 27' S, 46° 9' E Click for more
353175 CTD/STD cast 1987-07-06 19:23Z to 1987-07-06 19:43Z 9° 28' S, 46° 9' E Click for more
353187 CTD/STD cast 1987-07-06 20:17Z to 1987-07-06 20:56Z 9° 30' S, 46° 8' E Click for more
353199 CTD/STD cast 1987-07-06 21:57Z to 1987-07-06 22:15Z 9° 31' S, 46° 9' E Click for more
353206 CTD/STD cast 1987-07-06 22:47Z to 1987-07-06 23:10Z 9° 33' S, 46° 9' E Click for more
353218 CTD/STD cast 1987-07-07 00:17Z to 1987-07-07 00:35Z 9° 25' S, 46° 9' E Click for more
353231 CTD/STD cast 1987-07-07 04:00Z to 1987-07-07 04:29Z 9° 31' S, 46° 13' E Click for more
353243 CTD/STD cast 1987-07-07 10:49Z to 1987-07-07 11:11Z 9° 23' S, 46° 16' E Click for more
353255 CTD/STD cast 1987-07-07 13:10Z to 1987-07-07 13:28Z 9° 24' S, 46° 12' E Click for more
353267 CTD/STD cast 1987-07-07 13:59Z to 1987-07-07 14:43Z 9° 25' S, 46° 10' E Click for more
353279 CTD/STD cast 1987-07-07 16:36Z to 1987-07-07 17:00Z 9° 25' S, 46° 9' E Click for more
353280 CTD/STD cast 1987-07-07 17:30Z to 1987-07-07 18:00Z 9° 25' S, 46° 7' E Click for more
353292 CTD/STD cast 1987-07-07 18:52Z to 1987-07-07 19:13Z 9° 25' S, 46° 5' E Click for more
353311 CTD/STD cast 1987-07-07 19:41Z to 1987-07-07 20:03Z 9° 25' S, 46° 3' E Click for more
353323 CTD/STD cast 1987-07-07 20:47Z to 1987-07-07 21:04Z 9° 24' S, 46° 1' E Click for more
353335 CTD/STD cast 1987-07-07 22:45Z to 1987-07-07 23:05Z 9° 25' S, 45° 58' E Click for more
353347 CTD/STD cast 1987-07-07 23:34Z to 1987-07-07 23:53Z 9° 24' S, 45° 57' E Click for more
353359 CTD/STD cast 1987-07-08 00:29Z to 1987-07-08 00:56Z 9° 25' S, 45° 55' E Click for more
353360 CTD/STD cast 1987-07-08 06:35Z to 1987-07-08 07:00Z 9° 24' S, 46° 45' E Click for more
353372 CTD/STD cast 1987-07-08 07:33Z to 1987-07-08 07:52Z 9° 24' S, 46° 42' E Click for more
353384 CTD/STD cast 1987-07-08 08:19Z to 1987-07-08 08:46Z 9° 24' S, 46° 40' E Click for more
353396 CTD/STD cast 1987-07-08 09:26Z to 1987-07-08 09:45Z 9° 24' S, 46° 39' E Click for more
353403 CTD/STD cast 1987-07-08 10:25Z to 1987-07-08 10:40Z 9° 25' S, 46° 37' E Click for more
353415 CTD/STD cast 1987-07-08 12:45Z to 1987-07-08 13:30Z 9° 24' S, 46° 35' E Click for more
353427 CTD/STD cast 1987-07-08 14:11Z to 1987-07-08 14:29Z 9° 25' S, 46° 33' E Click for more
353439 CTD/STD cast 1987-07-08 15:27Z to 1987-07-08 15:51Z 9° 19' S, 46° 37' E Click for more
353440 CTD/STD cast 1987-07-08 16:13Z to 1987-07-08 16:28Z 9° 20' S, 46° 37' E Click for more
353452 CTD/STD cast 1987-07-08 16:50Z to 1987-07-08 17:10Z 9° 21' S, 46° 37' E Click for more
353464 CTD/STD cast 1987-07-08 17:30Z to 1987-07-08 17:47Z 9° 23' S, 46° 37' E Click for more
353476 CTD/STD cast 1987-07-08 18:12Z to 1987-07-08 18:47Z 9° 25' S, 46° 36' E Click for more
353488 CTD/STD cast 1987-07-08 19:18Z to 1987-07-08 19:33Z 9° 26' S, 46° 36' E Click for more
353507 CTD/STD cast 1987-07-08 20:00Z to 1987-07-08 20:15Z 9° 28' S, 46° 36' E Click for more
353519 CTD/STD cast 1987-07-08 20:44Z to 1987-07-08 20:59Z 9° 30' S, 46° 36' E Click for more
353520 CTD/STD cast 1987-07-08 21:27Z to 1987-07-08 21:41Z 9° 32' S, 46° 37' E Click for more
353532 CTD/STD cast 1987-07-08 22:00Z to 1987-07-08 22:17Z 9° 33' S, 46° 36' E Click for more
353544 CTD/STD cast 1987-07-09 02:53Z to 1987-07-09 03:20Z 9° 16' S, 45° 58' E Click for more
353556 CTD/STD cast 1987-07-09 10:11Z to 1987-07-09 10:34Z 9° 0' S, 45° 28' E Click for more
353568 CTD/STD cast 1987-07-09 15:01Z to 1987-07-09 17:00Z 9° 0' S, 45° 27' E Click for more
353581 CTD/STD cast 1987-07-10 11:02Z to 1987-07-10 11:22Z 9° 47' S, 46° 25' E Click for more
353593 CTD/STD cast 1987-07-10 21:53Z to 1987-07-10 22:48Z 9° 15' S, 45° 9' E Click for more
353600 CTD/STD cast 1987-07-11 02:00Z to 1987-07-11 03:10Z 9° 5' S, 45° 23' E Click for more
353612 CTD/STD cast 1987-07-11 06:55Z to 1987-07-11 08:02Z 8° 53' S, 45° 36' E Click for more
353624 CTD/STD cast 1987-07-11 13:29Z to 1987-07-11 14:40Z 8° 42' S, 45° 51' E Click for more
353636 CTD/STD cast 1987-07-11 19:12Z to 1987-07-11 20:22Z 8° 22' S, 46° 8' E Click for more
353648 CTD/STD cast 1987-07-12 00:10Z to 1987-07-12 01:42Z 8° 17' S, 45° 52' E Click for more
353661 CTD/STD cast 1987-07-12 06:02Z to 1987-07-12 07:19Z 8° 7' S, 45° 37' E Click for more
353673 CTD/STD cast 1987-06-25 22:13Z to 1987-06-25 22:53Z 9° 14' S, 46° 14' E Click for more
353685 CTD/STD cast 1987-06-26 00:11Z to 1987-06-26 00:34Z 9° 14' S, 46° 14' E Click for more
353697 CTD/STD cast 1987-06-26 01:05Z to 1987-06-26 01:31Z 9° 14' S, 46° 15' E Click for more
353704 CTD/STD cast 1987-06-26 02:13Z to 1987-06-26 02:41Z 9° 14' S, 46° 15' E Click for more
353716 CTD/STD cast 1987-06-26 03:04Z to 1987-06-26 03:40Z 9° 15' S, 46° 15' E Click for more
353728 CTD/STD cast 1987-06-26 04:02Z to 1987-06-26 04:34Z 9° 15' S, 46° 14' E Click for more
353741 CTD/STD cast 1987-06-26 05:10Z to 1987-06-26 05:44Z 9° 15' S, 46° 13' E Click for more
353753 CTD/STD cast 1987-06-26 06:08Z to 1987-06-26 06:33Z 9° 15' S, 46° 12' E Click for more
353765 CTD/STD cast 1987-07-02 18:16Z to 1987-07-02 19:06Z 9° 15' S, 46° 21' E Click for more
353777 CTD/STD cast 1987-07-02 19:48Z to 1987-07-02 20:10Z 9° 15' S, 46° 22' E Click for more
353789 CTD/STD cast 1987-07-02 20:20Z to 1987-07-02 20:38Z 9° 15' S, 46° 22' E Click for more
353790 CTD/STD cast 1987-07-02 20:50Z to 1987-07-02 21:08Z 9° 15' S, 46° 22' E Click for more
353808 CTD/STD cast 1987-07-02 21:20Z to 1987-07-02 21:38Z 9° 15' S, 46° 21' E Click for more
353821 CTD/STD cast 1987-07-02 21:50Z to 1987-07-02 22:08Z 9° 14' S, 46° 21' E Click for more
353833 CTD/STD cast 1987-07-02 22:20Z to 1987-07-02 22:47Z 9° 14' S, 46° 22' E Click for more
353845 CTD/STD cast 1987-07-02 22:55Z to 1987-07-02 23:13Z 9° 14' S, 46° 22' E Click for more
353857 CTD/STD cast 1987-07-02 23:25Z to 1987-07-02 23:46Z 9° 14' S, 46° 22' E Click for more
353869 CTD/STD cast 1987-07-02 23:55Z to 1987-07-03 00:17Z 9° 13' S, 46° 21' E Click for more
353870 CTD/STD cast 1987-07-03 00:59Z to 1987-07-03 01:20Z 9° 14' S, 46° 21' E Click for more
353882 CTD/STD cast 1987-07-03 01:31Z to 1987-07-03 01:36Z 9° 14' S, 46° 21' E Click for more
353894 CTD/STD cast 1987-07-03 02:36Z to 1987-07-03 02:57Z 9° 15' S, 46° 22' E Click for more
353901 CTD/STD cast 1987-07-03 03:03Z to 1987-07-03 03:24Z 9° 15' S, 46° 22' E Click for more
353913 CTD/STD cast 1987-07-03 04:06Z to 1987-07-03 04:32Z 9° 15' S, 46° 21' E Click for more
353925 CTD/STD cast 1987-07-03 04:37Z to 1987-07-03 05:01Z 9° 15' S, 46° 21' E Click for more
353937 CTD/STD cast 1987-07-03 05:07Z to 1987-07-03 05:28Z 9° 15' S, 46° 21' E Click for more
353949 CTD/STD cast 1987-07-03 05:35Z to 1987-07-03 05:54Z 9° 15' S, 46° 21' E Click for more
353950 CTD/STD cast 1987-07-03 06:03Z to 1987-07-03 06:25Z 9° 15' S, 46° 21' E Click for more
353962 CTD/STD cast 1987-07-03 07:44Z to 1987-07-03 08:24Z 9° 15' S, 46° 19' E Click for more
353974 CTD/STD cast 1987-07-03 08:45Z to 1987-07-03 09:06Z 9° 15' S, 46° 19' E Click for more
353986 CTD/STD cast 1987-07-03 09:15Z to 1987-07-03 09:35Z 9° 15' S, 46° 19' E Click for more
353998 CTD/STD cast 1987-07-03 10:07Z to 1987-07-03 10:27Z 9° 15' S, 46° 19' E Click for more
354001 CTD/STD cast 1987-07-03 10:40Z to 1987-07-03 11:00Z 9° 15' S, 46° 19' E Click for more
354013 CTD/STD cast 1987-07-03 11:25Z to 1987-07-03 11:48Z 9° 15' S, 46° 19' E Click for more
354025 CTD/STD cast 1987-07-03 12:08Z to 1987-07-03 12:29Z 9° 15' S, 46° 19' E Click for more
354037 CTD/STD cast 1987-07-03 12:42Z to 1987-07-03 13:02Z 9° 15' S, 46° 20' E Click for more
354049 CTD/STD cast 1987-07-03 13:15Z to 1987-07-03 13:37Z 9° 14' S, 46° 21' E Click for more
354050 CTD/STD cast 1987-07-03 13:59Z to 1987-07-03 14:17Z 9° 14' S, 46° 21' E Click for more
354062 CTD/STD cast 1987-07-03 14:29Z to 1987-07-03 14:49Z 9° 14' S, 46° 21' E Click for more
354074 CTD/STD cast 1987-07-03 16:12Z to 1987-07-03 16:37Z 9° 15' S, 46° 21' E Click for more
354086 CTD/STD cast 1987-07-03 16:45Z to 1987-07-03 17:03Z 9° 15' S, 46° 21' E Click for more
354098 CTD/STD cast 1987-07-03 17:03Z to 1987-07-03 17:23Z 9° 15' S, 46° 21' E Click for more
354105 CTD/STD cast 1987-07-03 17:37Z to 1987-07-03 17:57Z 9° 15' S, 46° 20' E Click for more
354117 CTD/STD cast 1987-07-03 17:57Z to 1987-07-03 18:22Z 9° 15' S, 46° 20' E Click for more
354129 CTD/STD cast 1987-07-03 18:29Z to 1987-07-03 18:48Z 9° 15' S, 46° 20' E Click for more
354130 CTD/STD cast 1987-07-03 18:52Z to 1987-07-03 19:20Z 9° 15' S, 46° 19' E Click for more

Project Database

No data currently held for this cruise in the BODC Project Database

References

Track Charts

No track charts currently available

Reports

No reports currently available